W4TTU-1 Weather Reports


time (UTC)temp
C
wind
direction
speed
KPH
gust
KPH
rain 1hr
cm
rain 24hr
cm
rain mn
cm
humidity
%
barometer
mb
20260504180227 20 270 12.9 16.1 0.00 0.00 0.00 31 843.8
20260504174726 18 270 12.9 12.9 0.00 0.00 0.00 31 843.9
20260504173226 17 270 9.7 14.5 0.00 0.00 0.00 32 844.0
20260504171725 16 270 8.0 12.9 0.00 0.00 0.00 32 844.1
20260504170225 16 270 9.7 17.7 0.00 0.00 0.00 34 844.4
20260504150220 8 270 8.0 16.1 0.00 0.00 0.00 34 845.1
20260504130216 6 270 6.4 16.1 0.00 0.00 0.00 30 844.5
20260504110212 5 270 6.4 14.5 0.00 0.00 0.00 28 842.5
20260504100210 6 270 0.0 0.0 0.00 0.00 0.00 27 841.0
20260504081710 9 270 0.0 1.6 0.00 0.00 0.00 27 841.1
20260504080206 10 270 0.0 1.6 0.00 0.00 0.00 27 841.2
20260504070203 11 270 0.0 3.2 0.00 0.00 0.00 27 841.3
20260504060201 12 270 3.2 4.8 0.00 0.00 0.00 27 841.2
20260504050159 15 270 0.0 0.0 0.00 0.00 0.00 26 841.3
20260504044700 16 270 1.6 1.6 0.00 0.00 0.00 25 841.3
20260504043158 17 270 0.0 0.0 0.00 0.00 0.00 25 841.3
20260504041659 18 270 0.0 0.0 0.00 0.00 0.00 25 841.3
20260504040157 18 270 1.6 1.6 0.00 0.00 0.00 24 841.2
20260504034658 20 270 0.0 1.6 0.00 0.00 0.00 25 841.2
20260504033156 21 270 0.0 0.0 0.00 0.00 0.00 24 840.9
20260504031656 22 270 0.0 1.6 0.00 0.00 0.00 23 840.7
20260504030155 23 270 0.0 1.6 0.00 0.00 0.00 24 840.6
20260504023154 26 270 0.0 0.0 0.00 0.00 0.00 24 840.3
20260504020153 27 270 0.0 0.0 0.00 0.00 0.00 24 840.2
20260504014654 27 270 0.0 0.0 0.00 0.00 0.00 24 840.3
20260504013152 28 270 0.0 1.6 0.00 0.00 0.00 23 840.3
20260504011651 28 270 0.0 0.0 0.00 0.00 0.00 22 840.4
20260504010155 30 270 1.6 3.2 0.00 0.00 0.00 22 840.5
20260504003151 32 270 3.2 6.4 0.00 0.00 0.00 22 840.6
20260504000149 35 270 4.8 4.8 0.00 0.00 0.00 22 840.8
20260503230148 36 270 1.6 8.0 0.00 0.00 0.00 23 841.2
20260503223148 36 270 6.4 11.3 0.00 0.00 0.00 23 841.4
20260503221645 36 270 3.2 3.2 0.00 0.00 0.00 24 841.5
20260503220145 36 270 0.0 4.8 0.00 0.00 0.00 24 841.8
20260503214644 35 270 1.6 6.4 0.00 0.00 0.00 24 842.0
20260503213144 35 270 8.0 14.5 0.00 0.00 0.00 24 842.2
20260503210143 33 270 9.7 11.3 0.00 0.00 0.00 25 842.5
20260503203142 32 270 1.6 8.0 0.00 0.00 0.00 25 842.9
20260503201641 32 270 1.6 6.4 0.00 0.00 0.00 24 843.0
20260503200141 33 270 3.2 6.4 0.00 0.00 0.00 25 843.2
20260503194640 32 270 3.2 9.7 0.00 0.00 0.00 26 843.3
20260503193139 32 270 6.4 12.9 0.00 0.00 0.00 27 843.4
20260503191639 31 270 4.8 6.4 0.00 0.00 0.00 27 843.6
20260503190139 31 270 3.2 9.7 0.00 0.00 0.00 28 843.7
20260503183139 29 270 8.0 8.0 0.00 0.00 0.00 28 844.0